EW4729 Weather Reports


time (UTC)temp
C
wind
direction
speed
KPH
gust
KPH
rain 1hr
cm
rain 24hr
cm
rain mn
cm
humidity
%
barometer
mb
20260502130555 12 14 4.8 14.5 0.00 4.11 0.00 93 1020.7
20260502123554 11 20 3.2 8.0 0.00 5.18 0.00 93 1020.5
20260502123100 11 0 1.6 8.0 0.00 5.18 0.00 93 1020.4
20260502122555 11 294 1.6 8.0 0.00 5.18 0.00 93 1020.3
20260502122053 11 0 3.2 8.0 0.00 5.18 0.00 93 1020.1
20260502121559 11 0 1.6 8.0 0.00 5.18 0.00 93 1020.1
20260502121058 11 326 1.6 8.0 0.00 5.18 0.00 93 1020.1
20260502120556 11 25 3.2 14.5 0.00 5.18 0.00 93 1020.1
20260502115554 11 9 3.2 9.7 0.00 5.89 0.00 93 1019.9
20260502115052 11 323 3.2 8.0 0.00 5.89 0.00 93 1019.8
20260502114558 11 347 1.6 8.0 0.00 5.89 0.00 93 1019.9
20260502114052 11 355 0.0 6.4 0.00 5.89 0.00 93 1019.8
20260502113551 11 13 1.6 8.0 0.00 5.89 0.00 93 1019.9
20260502113104 11 28 1.6 8.0 0.00 5.89 0.00 93 1019.8
20260502112551 11 355 3.2 8.0 0.00 5.89 0.00 93 1019.7
20260502112052 11 323 1.6 8.0 0.00 5.89 0.00 93 1019.6
20260502111557 11 351 1.6 8.0 0.00 5.89 0.00 93 1019.6
20260502111055 11 36 1.6 6.4 0.00 5.89 0.00 93 1019.4
20260502110553 11 21 1.6 6.4 0.00 5.89 0.00 93 1019.3
20260502105555 11 55 1.6 8.0 0.00 7.32 0.00 93 1018.9
20260502105052 11 355 1.6 8.0 0.00 7.32 0.00 93 1018.9
20260502104607 11 25 3.2 16.1 0.00 7.32 0.00 93 1018.7
20260502104054 11 13 1.6 16.1 0.00 7.32 0.00 93 1018.8
20260502103554 11 49 4.8 16.1 0.00 7.32 0.00 92 1018.7
20260502103054 11 59 4.8 12.9 0.00 7.32 0.00 92 1018.6
20260502102557 11 340 4.8 11.3 0.00 7.32 0.00 92 1018.4
20260502102053 11 57 3.2 11.3 0.00 7.32 0.00 92 1018.4
20260502101608 11 24 4.8 9.7 0.00 7.32 0.00 92 1018.4
20260502101054 11 10 3.2 12.9 0.00 7.32 0.00 92 1018.5
20260502100552 11 360 3.2 12.9 0.00 7.32 0.00 92 1018.5
20260502091051 11 40 1.6 9.7 0.00 8.92 0.00 92 1017.6
20260502090551 11 5 3.2 9.7 0.00 8.92 0.00 92 1017.4
20260502071052 11 28 3.2 9.7 0.00 10.69 0.00 92 1017.1
20260502070552 11 55 3.2 6.4 0.00 10.69 0.00 92 1017.0
20260502070117 11 38 1.6 8.0 0.00 10.69 0.00 92 1017.1
20260502065552 11 26 3.2 8.0 0.00 10.82 0.00 92 1017.1
20260502065052 11 5 1.6 9.7 0.00 10.82 0.00 92 1017.1
20260502064556 11 38 3.2 19.3 0.00 10.82 0.00 92 1017.0
20260502064051 11 52 8.0 19.3 0.00 10.82 0.00 92 1017.1
20260502063552 12 65 6.4 17.7 0.00 10.82 0.00 92 1017.2
20260502063113 12 34 9.7 17.7 0.00 10.82 0.00 92 1017.2
20260502062556 12 360 4.8 17.7 0.00 10.82 0.00 92 1017.1
20260502062053 12 360 6.4 16.1 0.00 10.82 0.00 92 1017.2
20260502061558 12 56 6.4 16.1 0.00 10.82 0.00 92 1017.1
20260502061051 12 65 6.4 17.7 0.00 10.82 0.00 92 1017.3
20260502060551 12 40 3.2 17.7 0.00 10.82 0.00 92 1017.2
20260502060059 12 80 3.2 16.1 0.00 10.82 0.00 92 1017.3
20260502055551 12 37 9.7 22.5 0.00 10.82 0.00 92 1017.2
20260502055053 12 111 9.7 22.5 0.00 10.82 0.00 92 1017.3
20260502054606 12 13 11.3 22.5 0.00 10.82 0.00 93 1017.3
20260502054059 12 88 4.8 20.9 0.00 10.82 0.00 93 1017.3
20260502053552 12 355 8.0 20.9 0.00 10.82 0.00 93 1017.3
20260502053057 12 24 8.0 20.9 0.00 10.82 0.00 93 1017.2
20260502052552 12 105 8.0 19.3 0.00 10.82 0.00 93 1017.2
20260502052052 12 23 4.8 19.3 0.00 10.82 0.00 93 1017.3
20260502051555 12 53 8.0 22.5 0.00 10.82 0.00 93 1017.3
20260502051051 12 66 8.0 22.5 0.00 10.82 0.00 93 1017.2
20260502050551 12 11 8.0 19.3 0.00 10.82 0.00 93 1017.2
20260502050054 13 341 8.0 19.3 0.00 10.82 0.00 93 1017.1
20260502045552 13 38 8.0 19.3 0.00 10.85 10.82 93 1017.0
20260502045052 12 32 8.0 22.5 0.00 10.85 10.82 93 1017.0
20260502044553 12 58 9.7 25.7 0.00 10.85 10.82 93 1017.0
20260502044053 12 80 9.7 25.7 0.00 10.85 10.82 93 1016.9
20260502043551 12 94 11.3 25.7 0.00 10.85 10.82 93 1016.8
20260502043112 12 9 9.7 24.1 0.00 10.85 10.82 93 1016.8
20260502042551 12 17 9.7 24.1 0.00 10.85 10.82 94 1016.6
20260502042051 12 35 9.7 24.1 0.00 10.85 10.82 94 1016.8
20260502041619 12 37 9.7 24.1 0.00 10.85 10.82 94 1016.7
20260502041059 12 66 8.0 24.1 0.00 10.85 10.82 94 1016.6
20260502040552 13 32 12.9 24.1 0.00 10.85 10.82 94 1016.7
20260502040100 13 69 9.7 20.9 0.00 10.85 10.82 94 1016.6
20260502035551 13 59 6.4 20.9 0.00 10.85 10.82 94 1016.5
20260502035055 13 66 6.4 20.9 0.00 10.85 10.82 94 1016.7
20260502034557 13 9 8.0 24.1 0.00 10.85 10.82 94 1016.6
20260502034052 13 36 6.4 24.1 0.00 10.85 10.82 94 1016.6
20260502033552 13 55 9.7 22.5 0.00 10.85 10.82 94 1016.6
20260502033053 13 38 6.4 17.7 0.00 10.85 10.82 94 1016.4
20260502032551 13 5 6.4 19.3 0.00 10.85 10.82 94 1016.4
20260502032051 13 25 8.0 25.7 0.00 10.85 10.82 94 1016.3
20260502031554 13 38 11.3 25.7 0.00 10.85 10.82 94 1016.3
20260502031051 13 67 6.4 19.3 0.00 10.85 10.82 94 1016.2
20260502030553 13 28 9.7 20.9 0.00 10.85 10.82 94 1016.0
20260502030116 13 31 9.7 27.4 0.00 10.85 10.82 94 1015.9
20260502025552 13 78 9.7 27.4 0.00 10.85 10.82 94 1016.0
20260502025054 13 36 12.9 27.4 0.00 10.85 10.82 94 1016.0
20260502024604 13 38 9.7 22.5 0.00 10.85 10.82 94 1015.9
20260502024052 13 28 9.7 22.5 0.00 10.85 10.82 94 1016.0
20260502023552 13 13 8.0 17.7 0.00 10.85 10.82 94 1015.8
20260502023125 13 51 4.8 27.4 0.00 10.85 10.82 95 1015.7
20260502022557 13 65 4.8 27.4 0.00 10.85 10.82 95 1015.6
20260502022051 13 112 8.0 19.3 0.00 10.85 10.82 95 1015.5
20260502021554 13 47 6.4 19.3 0.00 10.85 10.82 95 1015.4
20260502021051 13 34 6.4 27.4 0.00 10.85 10.82 95 1015.4
20260502020552 13 57 8.0 27.4 0.00 10.85 10.82 95 1015.2
20260502015557 13 44 9.7 25.7 0.00 10.85 10.82 95 1014.9
20260502015055 13 18 12.9 25.7 0.00 10.85 10.82 94 1014.8
20260502014604 14 30 8.0 20.9 0.00 10.85 10.82 95 1014.4
20260502014054 14 37 9.7 20.9 0.00 10.85 10.82 95 1014.1
20260502013554 14 42 6.4 19.3 0.00 10.85 10.82 95 1013.9
20260502013100 14 48 8.0 19.3 0.00 10.85 10.82 95 1013.9
20260502012554 14 344 9.7 25.7 0.00 10.85 10.82 95 1013.9
20260502012154 14 69 11.3 25.7 0.03 10.85 10.82 95 1013.8
20260502011605 14 74 9.7 25.7 0.05 10.85 10.82 95 1013.7
20260502011051 14 49 8.0 25.7 0.05 10.85 10.82 95 1013.6
20260502010552 14 82 9.7 27.4 0.08 10.85 10.82 95 1013.4
20260502010052 14 46 9.7 27.4 0.08 10.85 10.82 95 1013.6
20260502005552 14 59 11.3 29.0 0.10 10.85 10.82 95 1013.7
20260502005057 14 360 9.7 29.0 0.13 10.85 10.82 95 1013.5
20260502004554 15 49 9.7 25.7 0.13 10.85 10.82 95 1013.6
20260502004055 15 22 6.4 24.1 0.13 10.85 10.82 95 1013.8
20260502003555 15 38 11.3 25.7 0.15 10.85 10.82 95 1013.9
20260502003055 15 44 9.7 25.7 0.15 10.85 10.82 95 1013.8
20260502002600 15 50 9.7 30.6 0.15 10.85 10.82 95 1013.7
20260502002054 15 51 12.9 30.6 0.15 10.82 10.79 95 1013.4
20260502001559 15 85 8.0 19.3 0.18 10.79 10.74 95 1013.4
20260502001052 15 34 6.4 22.5 0.20 10.79 10.74 95 1013.9
20260502000552 15 41 8.0 22.5 0.20 10.74 10.74 95 1014.3
20260502000107 15 22 6.4 25.7 0.20 10.74 10.74 95 1014.2
20260501235552 15 5 11.3 25.7 0.20 10.74 10.69 95 1014.0
20260501235055 15 46 9.7 19.3 0.18 10.69 10.69 95 1013.9
20260501234556 15 27 3.2 19.3 0.18 10.69 10.69 95 1013.7
20260501234052 15 67 6.4 22.5 0.18 10.69 10.69 95 1013.5
20260501233552 15 338 6.4 22.5 0.18 10.69 10.64 95 1013.4
20260501233119 15 26 8.0 17.7 0.23 10.69 10.64 95 1013.2
20260501232552 15 46 6.4 22.5 0.30 10.69 10.64 95 1013.2
20260501232052 15 342 8.0 22.5 0.43 10.64 10.64 95 1013.3
20260501231628 15 24 9.7 22.5 0.48 10.59 10.59 95 1013.1
20260501231051 15 40 4.8 27.4 0.48 10.59 10.57 95 1013.5
20260501230551 15 18 9.7 27.4 0.46 10.57 10.54 95 1013.5
20260501230123 15 29 6.4 19.3 0.46 10.57 10.54 95 1013.1
20260501225554 15 67 4.8 19.3 0.43 10.54 10.52 95 1013.1
20260501225054 15 317 6.4 19.3 0.43 10.54 10.52 95 1012.9
20260501224610 15 360 8.0 22.5 0.43 10.54 10.52 95 1012.4
20260501224054 15 36 8.0 27.4 0.43 10.54 10.52 95 1012.0
20260501223555 15 38 8.0 27.4 0.41 10.52 10.49 95 1012.0
20260501223102 15 21 8.0 22.5 0.36 10.46 10.44 95 1012.1
20260501222555 15 79 8.0 17.7 0.28 10.39 10.36 95 1011.8
20260501222055 15 317 8.0 17.7 0.13 10.24 10.21 95 1012.5
20260501221609 15 38 4.8 24.1 0.03 10.13 10.11 95 1012.1
20260501221055 15 67 6.4 30.6 0.00 10.11 10.08 95 1011.0
20260501220554 15 19 11.3 30.6 0.00 10.11 10.08 95 1010.0
20260501220104 15 22 8.0 24.1 0.00 10.11 10.08 95 1010.0
20260501215555 15 90 9.7 24.1 0.00 10.11 10.08 95 1009.9
20260501215053 16 57 6.4 19.3 0.00 10.11 10.08 95 1010.2
20260501214554 16 42 8.0 27.4 0.00 10.11 10.08 95 1010.3
20260501214055 16 30 6.4 27.4 0.00 10.11 10.08 95 1010.4
20260501213554 16 25 11.3 25.7 0.00 10.11 10.08 95 1010.4
20260501213053 16 40 9.7 25.7 0.00 10.11 10.08 95 1010.4
20260501212555 16 54 11.3 29.0 0.00 10.11 10.08 95 1010.2
20260501212058 16 95 9.7 29.0 0.00 10.11 10.08 95 1010.1
20260501211553 16 69 8.0 25.7 0.03 10.11 10.08 95 1010.1
20260501211054 16 70 11.3 29.0 0.15 10.11 10.08 95 1010.0
20260501210553 16 32 12.9 29.0 0.28 10.11 10.08 95 1010.2
20260501210054 16 76 9.7 27.4 0.36 10.11 10.08 95 1010.3
20260501205557 16 63 11.3 24.1 0.41 10.11 10.08 95 1010.6
20260501205054 16 61 8.0 25.7 0.43 10.11 10.08 95 1010.9
20260501204553 16 50 11.3 25.7 0.48 10.11 10.08 95 1010.8
20260501204055 16 46 12.9 30.6 0.51 10.11 10.08 95 1011.0
20260501203554 16 34 8.0 30.6 0.51 10.11 10.08 95 1010.9
20260501203054 16 36 9.7 24.1 0.51 10.11 10.08 95 1011.2
20260501202553 16 36 8.0 24.1 0.53 10.11 10.08 95 1011.3
20260501202057 16 119 11.3 24.1 0.56 10.11 10.08 95 1010.5
20260501201552 16 59 9.7 24.1 0.53 10.06 10.03 95 1010.7
20260501201053 16 262 6.4 24.1 0.46 9.96 9.93 95 1011.6
20260501200554 16 355 4.8 19.3 0.33 9.83 9.80 95 1011.2
20260501200052 16 297 6.4 20.9 0.28 9.75 9.73 95 1012.1
20260501195554 16 283 6.4 20.9 0.23 9.70 9.68 95 1011.7
20260501195054 17 286 8.0 19.3 0.25 9.68 9.65 95 1011.2
20260501194553 17 315 6.4 19.3 0.23 9.63 9.60 95 1010.8
20260501194053 17 277 4.8 20.9 0.23 9.60 9.58 95 1010.9
20260501193555 17 338 3.2 20.9 0.23 9.60 9.58 95 1010.8
20260501193054 17 355 6.4 20.9 0.23 9.60 9.58 95 1010.4
20260501192557 17 51 8.0 16.1 0.20 9.58 9.55 95 1010.0
20260501192053 17 67 6.4 17.7 0.18 9.55 9.53 95 1010.4
20260501191554 17 14 6.4 19.3 0.13 9.50 9.47 95 1010.8
20260501191053 17 100 8.0 20.9 0.13 9.50 9.47 95 1010.7
20260501190553 16 307 8.0 24.1 0.13 9.50 9.47 95 1010.3
20260501190053 16 360 9.7 24.1 0.10 9.47 9.45 95 1008.8
20260501185552 16 115 6.4 14.5 0.10 9.47 9.45 95 1009.4
20260501185053 17 24 3.2 20.9 0.05 9.42 9.40 95 1010.7
20260501184554 17 343 4.8 20.9 0.03 9.40 9.37 95 1010.6
20260501184055 17 17 9.7 20.9 0.00 9.37 9.35 95 1010.3
20260501183554 17 36 3.2 16.1 0.00 9.37 9.35 95 1010.2
20260501183054 17 12 6.4 16.1 0.00 9.37 9.35 95 1010.1
20260501182556 17 38 4.8 16.1 0.00 9.37 9.35 95 1009.9
20260501182054 17 38 4.8 20.9 0.03 9.37 9.35 95 1010.0
20260501181557 17 57 9.7 20.9 0.03 9.37 9.35 95 1009.9
20260501181053 17 74 8.0 17.7 0.03 9.37 9.35 95 1010.0
20260501180555 17 12 6.4 17.7 0.03 9.37 9.35 95 1009.9
20260501180106 17 28 8.0 17.7 0.05 9.37 9.35 95 1009.9
20260501175555 17 57 6.4 14.5 0.05 9.37 9.35 95 1010.0
20260501175055 17 17 6.4 19.3 0.08 9.37 9.35 95 1010.2
20260501174555 17 62 9.7 20.9 0.08 9.37 9.35 95 1010.3
20260501174054 17 62 9.7 20.9 0.10 9.37 9.35 95 1010.6
20260501173552 17 69 6.4 20.9 0.10 9.37 9.35 95 1010.4
20260501173105 17 57 4.8 19.3 0.13 9.37 9.35 96 1010.6
20260501172552 17 57 8.0 22.5 0.13 9.37 9.35 95 1010.0
20260501172050 16 336 6.4 30.6 0.10 9.35 9.32 95 1009.4
20260501171603 16 63 9.7 30.6 0.13 9.35 9.32 95 1008.7
20260501171051 16 40 11.3 24.1 0.13 9.35 9.32 95 1009.6
20260501170552 16 92 9.7 29.0 0.15 9.35 9.32 95 1009.7
20260501170056 16 75 8.0 29.0 0.15 9.32 9.30 95 1010.2
20260501165555 16 71 12.9 29.0 0.15 9.32 9.30 95 1009.6
20260501165056 16 53 12.9 27.4 0.15 9.30 9.27 95 1010.7
20260501164617 16 76 6.4 24.1 0.18 9.30 9.27 95 1013.0
20260501164051 16 126 9.7 20.9 0.23 9.27 9.25 95 1012.6
20260501163551 16 9 8.0 22.5 0.30 9.27 9.25 95 1012.7
20260501163055 16 349 8.0 22.5 0.36 9.25 9.22 95 1012.4
20260501162552 16 67 9.7 22.5 0.41 9.25 9.22 95 1012.3
20260501162052 16 42 8.0 19.3 0.48 9.25 9.22 95 1013.0
20260501161555 16 48 4.8 19.3 0.56 9.22 9.19 95 1013.1
20260501161051 16 46 8.0 17.7 0.61 9.22 9.19 95 1012.2
20260501160551 16 64 4.8 16.1 0.64 9.19 9.17 95 1012.2
20260501160056 16 5 6.4 16.1 0.64 9.17 9.14 95 1012.8
20260501155551 16 84 0.0 16.1 0.71 9.17 9.14 95 1013.3
20260501155051 16 57 6.4 14.5 0.81 9.14 9.12 95 1012.6
20260501154555 16 38 3.2 17.7 0.91 9.09 9.07 95 1013.2
20260501154055 16 84 8.0 17.7 1.04 9.04 9.02 95 1012.9
20260501153559 16 65 8.0 20.9 1.14 8.97 8.94 95 1012.4
20260501153107 16 50 8.0 20.9 1.17 8.89 8.86 95 1013.0
20260501152555 16 44 1.6 16.1 1.27 8.84 8.81 95 1013.7
20260501152056 16 76 8.0 19.3 1.22 8.74 8.71 95 1013.7
20260501151606 16 40 6.4 22.5 1.22 8.66 8.64 95 1013.3
20260501151054 16 34 9.7 22.5 1.19 8.61 8.59 95 1013.2
20260501150556 16 45 8.0 22.5 1.14 8.56 8.53 95 1013.2
20260501150054 16 48 8.0 20.9 1.12 8.53 8.51 95 1012.7
20260501145557 16 52 9.7 19.3 1.04 8.46 8.43 95 1012.8
20260501145056 17 9 6.4 19.3 0.94 8.33 8.31 95 1013.1
20260501144556 16 332 6.4 19.3 0.79 8.15 8.13 95 1013.2
20260501144055 17 15 8.0 19.3 0.66 8.00 7.98 95 1013.2
20260501143551 17 304 1.6 12.9 0.46 7.80 7.77 95 1012.7
20260501143126 16 305 3.2 17.7 0.36 7.70 7.67 95 1012.5
20260501142554 16 42 6.4 17.7 0.25 7.57 7.54 95 1012.1
20260501142051 16 54 6.4 17.7 0.25 7.52 7.49 95 1012.0
20260501141613 16 38 4.8 16.1 0.25 7.44 7.42 95 1011.6
20260501141056 16 86 4.8 12.9 0.33 7.42 7.39 95 1011.5
20260501140557 16 35 4.8 12.9 0.46 7.42 7.39 95 1011.5
20260501140111 16 58 3.2 11.3 0.69 7.42 7.39 95 1011.8
20260501135554 16 98 3.2 16.1 0.74 7.42 7.39 95 1011.9
20260501135054 16 360 8.0 16.1 0.76 7.39 7.37 95 1012.1
20260501134555 16 103 4.8 16.1 0.79 7.37 7.34 95 1012.3
20260501134051 16 46 6.4 19.3 0.84 7.34 7.32 95 1012.4
20260501133554 16 72 6.4 19.3 0.99 7.34 7.32 95 1012.7